This is the latest recevied weather packets stored in our database for station/object WB8ZGM-13. If no packets are shown the sender has not sent any weather packets the latest 10 day(s).
| Time | Temp. | Humidity | Pressure | Rain* | Wind** | Luminosity | Snow |
|---|---|---|---|---|---|---|---|
| 1777641964 | 18.89° C | 60% | 997.8 hPa | 0 mm | - | - | - |
| 1777641064 | 17.22° C | 68% | 997.8 hPa | 0 mm | - | - | - |
| 1777640164 | 16.67° C | 70% | 997.6 hPa | 0 mm | - | - | - |
| 1777639234 | 12.78° C | 94% | 997.6 hPa | 0 mm | - | - | - |
| 1777638304 | 10° C | 99% | 997.6 hPa | 0 mm | - | - | - |
| 1777637404 | 7.78° C | 99% | 997.1 hPa | 0 mm | - | - | - |
| 1777636504 | 5.56° C | 99% | 997.2 hPa | 0 mm | - | - | - |
| 1777635574 | 5.56° C | 99% | 997 hPa | 0 mm | - | - | - |
| 1777634644 | 5.56° C | 99% | 996.9 hPa | 0 mm | - | - | - |
| 1777633744 | 5.56° C | 99% | 996.7 hPa | 0 mm | - | - | - |
| 1777632843 | 5.56° C | 99% | 996.7 hPa | 0 mm | - | - | - |
| 1777631943 | 5.56° C | 99% | 996.8 hPa | 0 mm | - | - | - |
| 1777631043 | 5.56° C | 99% | 996.8 hPa | 0 mm | - | - | - |
| 1777630143 | 6.11° C | 99% | 996.7 hPa | 0 mm | - | - | - |
| 1777629243 | 6.11° C | 99% | 996.7 hPa | 0 mm | - | - | - |
| 1777628313 | 6.11° C | 99% | 996.9 hPa | 0 mm | - | - | - |
| 1777627383 | 6.11° C | 99% | 996.7 hPa | 0 mm | - | - | - |
| 1777626453 | 6.11° C | 99% | 996.5 hPa | 0 mm | - | - | - |
| 1777625553 | 6.11° C | 99% | 996.4 hPa | 0 mm | - | - | - |
| 1777624653 | 6.67° C | 99% | 996.6 hPa | 0 mm | - | - | - |
| 1777623753 | 6.67° C | 99% | 996.4 hPa | 0 mm | - | - | - |
| 1777622823 | 7.22° C | 99% | 996.5 hPa | 0 mm | - | - | - |
| 1777621893 | 7.22° C | 99% | 996.7 hPa | 0 mm | - | - | - |
| 1777620963 | 7.78° C | 99% | 996.8 hPa | 0 mm | - | - | - |
| 1777620033 | 7.78° C | 99% | 997 hPa | 0 mm | - | - | - |
* Rain latest hour (hover to see other rain measurements)
** Current wind speed in m/s (hover to see current wind gust speed)